STARS-EC
1 47928U 98067SE 21154.78162482 .00011480 00000-0 19928-3 0 9997
2 47928 51.6433 48.1369 0006352 67.7987 292.3676 15.51322435 12633
Maya-2
1 47929U 98067SF 21153.94104588 .00006081 00000-0 10972-3 0 9999
2 47929 51.6438 52.2775 0001847 4.5350 355.5656 15.51210832 12483
OPUSAT-II
1 47930U 98067SG 21154.19012625 .00010249 00000-0 17658-3 0 9998
2 47930 51.6439 50.9422 0001580 7.7966 352.3048 15.51683020 12564
GuaraniSat-1
1 47931U 98067SH 21154.13362708 .00006700 00000-0 12003-3 0 9999
2 47931 51.6442 51.3146 0001879 3.8216 356.2788 15.51227976 12550
CubeSX-Sirius-HSE
1 47951U 21022V 21154.91099832 -.00000030 00000-0 22015-5 0 9996
2 47951 97.5595 57.3372 0022711 2.1370 128.5960 15.05639285 11019
CubeSX-HSE
1 47952U 21022W 21154.90996542 .00000043 00000-0 72648-5 0 9990
2 47952 97.5588 57.3382 0022493 1.5392 133.7071 15.05678184 11019
KSU-Cubesat
1 47954U 21022Y 21153.68526987 .00000939 00000-0 68837-4 0 9996
2 47954 97.5604 56.1511 0021918 5.4292 354.7169 15.05760419 10558
GRBAlpha
1 47959U 21022AD 21154.70139985 .00000040 00000-0 70428-5 0 9996
2 47959 97.5598 57.1399 0022382 2.9533 81.5345 15.05675604 9804
Orbicraft-Zorkiy
1 47960U 21022AE 21154.76488484 .00000251 00000-0 21549-4 0 9998
2 47960 97.5610 57.2206 0022192 2.2113 83.1699 15.05742365 10503
STECCO
1 47962U 21022AG 21154.78364501 .00000763 00000-0 55293-4 0 9996
2 47962 97.5575 57.3200 0017231 1.5639 87.7213 15.06773449 9815
DO-111
1 47963U 21022AH 21154.61919175 .00002438 00000-0 16548-3 0 9992
2 47963 97.5592 57.1970 0019887 357.3642 2.7477 15.07188022 9819
MO-110
1 47964U 21022AJ 21154.29008316 .00000986 00000-0 69703-4 0 9991
2 47964 97.5593 56.8660 0019966 358.5868 1.5300 15.07035866 9745
